Regional Weather Roundup
Issued by NWS Kansas City/Pleasant Hill, MO

Home | Current Version | Previous Version | Text Only | Print | Product List | Glossary On
Versions: 1 2 3 4 5 6 7 8 9 10 11 12 13 14 15 16 17 18 19 20 21 22 23 24 25 26 27 28 29 30 31 32 33 34 35 36 37 38 39 40 41 42 43 44 45 46 47 48 49 50
000
ASUS43 KEAX 020104
RWREAX

WEATHER ROUNDUP FOR EASTERN KANSAS AND NORTHWEST MISSOURI
NATIONAL WEATHER SERVICE KANSAS CITY/PLEASANT HILL MO
800 PM CDT MON JUN 01 2015

KSZ040-057-103>105-MOZ028-029-037-043-020200-
...KANSAS CITY METROPOLITAN AREA...

CITY           SKY/WX    TMP DP  RH WIND       PRES   REMARKS
K.C. INTL      CLOUDY    63  54  72 E13       30.12S
K.C. DOWNTOWN  CLOUDY    64  53  67 E8        30.11S
LEES SUMMIT    CLOUDY    62  54  74 E7        30.13S
OLATHE - IXD   CLOUDY    61  54  77 E7        30.12S
OLATHE - OJC   CLOUDY    61  54  77 E8        30.11S
LAWRENCE       CLOUDY    64  54  69 SE10      30.11S

$$

MOZ001>008-011>017-020>025-030>033-038>040-044>046-053-054-020200-
...NORTHERN AND CENTRAL MISSOURI...

CITY           SKY/WX    TMP DP  RH WIND       PRES   REMARKS
ST. JOSEPH     CLOUDY    66  55  67 SE9       30.10F
MOSBY          CLOUDY    63  54  72 E7        30.12S
HARRISONVILLE  CLOUDY    63  55  77 E5        30.15S
WHITEMAN AFB   NOT AVBL
CLINTON        NOT AVBL
SEDALIA        CLOUDY    62  54  74 E6        30.14F
WARSAW         CLOUDY    59  55  88 CALM      30.14S
CHILLICOTHE      N/A     64  56  75 SE5       30.15S
MOBERLY        CLOUDY    63  54  72 CALM      30.16F
KIRKSVILLE     CLOUDY    62  56  80 SE5       30.16S

$$

MOZ041-047>049-056>058-063>065-088>090-097-020200-
...EASTERN AND SOUTHERN MISSOURI...

CITY           SKY/WX    TMP DP  RH WIND       PRES   REMARKS
ST. LOUIS INTL NOT AVBL
SPIRIT OF STL  CLOUDY    62  58  86 W3        30.13S
COLUMBIA       CLOUDY    62  56  80 E5        30.15R
JEFFERSON CITY CLOUDY    63  55  75 NE5       30.14S
MEXICO         CLOUDY    63  59  88 E3        30.16R
ROLLA          CLOUDY    59  56  89 CALM      30.13S
LEBANON        CLOUDY    59  55  88 E5        30.14S
OSAGE BEACH    CLOUDY    61  54  77 N3        30.13F
SPRINGFIELD    CLEAR     64  56  75 NE12      30.10S
BRANSON        MOCLDY    68  57  68 CALM      30.09S
NEVADA         CLEAR     63  55  77 E8        30.11F
JOPLIN         CLEAR     69  57  65 VRB6      30.08S
WEST PLAINS    CLOUDY    62  56  80 NE8       30.12S

$$

IAZ060-094-KSZ022-034>040-054-083-096-NEZ052-066-093-020200-
...KANSAS...SOUTHEAST NEBRASKA AND IOWA...

CITY           SKY/WX    TMP DP  RH WIND       PRES   REMARKS
TOPEKA         CLEAR     65  54  67 SE13      30.10S
MANHATTAN      PTCLDY    71  57  61 SE7       30.05F
EMPORIA        PTCLDY    66  57  72 E13       30.07S
CHANUTE        CLEAR     66  57  72 E6        30.07F
WICHITA        PTCLDY    73  57  57 SE10      30.03S
OMAHA          PTCLDY    71  51  49 SE12      30.06F
LINCOLN        CLEAR     72  53  51 S13       30.06S
FALLS CITY     CLEAR     67  54  63 SE12      30.08S
LAMONI         CLEAR     67  54  63 SE6       30.12S
DES MOINES     PTCLDY    69  50  50 S13       30.11S

$$



USA.gov is the U.S. government's official web portal to all federal, state and local government web resources and services.